Time,TemperatureF,DewpointF,PressureIn,WindDirection,WindDirectionDegrees,WindSpeedMPH,WindSpeedGustMPH,Humidity,HourlyPrecipIn,Conditions,Clouds,dailyrainin,SolarRadiationWatts/m^2,SoftwareType,DateUTC
2013-01-03 00:00:00,23.2,20.2,30.19,NW,319,0.0,0.0,88,0.00,,,0.01,0,Wunderground v.1.15,2013-01-03 05:00:00,
2013-01-03 00:05:00,23.1,20.1,30.19,NW,319,0.0,0.0,88,0.00,,,0.00,0,Wunderground v.1.15,2013-01-03 05:05:00,
2013-01-03 00:15:00,22.9,20.1,30.18,NW,319,0.0,0.0,89,0.00,,,0.00,0,Wunderground v.1.15,2013-01-03 05:15:00,
2013-01-03 00:25:00,22.7,19.9,30.19,NW,319,0.0,0.0,89,0.00,,,0.00,0,Wunderground v.1.15,2013-01-03 05:25:00,
2013-01-03 00:30:00,22.6,19.8,30.19,NW,319,0.0,0.0,89,0.00,,,0.00,0,Wunderground v.1.15,2013-01-03 05:30:00,
2013-01-03 00:40:00,22.4,19.9,30.19,NW,319,0.0,0.0,90,0.00,,,0.00,0,Wunderground v.1.15,2013-01-03 05:40:00,
2013-01-03 00:45:00,22.4,19.9,30.19,NW,319,0.0,0.0,90,0.00,,,0.00,0,Wunderground v.1.15,2013-01-03 05:45:00,
2013-01-03 00:55:00,22.1,19.6,30.18,NW,319,0.0,0.0,90,0.00,,,0.00,0,Wunderground v.1.15,2013-01-03 05:55:00,
2013-01-03 01:05:00,21.7,19.2,30.18,NW,319,0.0,0.0,90,0.00,,,0.00,0,Wunderground v.1.15,2013-01-03 06:05:00,
2013-01-03 01:15:00,21.5,19.0,30.17,NW,319,0.0,0.0,90,0.00,,,0.00,0,Wunderground v.1.15,2013-01-03 06:15:00,
2013-01-03 01:20:00,21.3,18.8,30.17,NW,319,0.0,0.0,90,0.00,,,0.00,0,Wunderground v.1.15,2013-01-03 06:20:00,
2013-01-03 01:30:00,21.2,19.0,30.18,NW,319,0.0,0.0,91,0.00,,,0.00,0,Wunderground v.1.15,2013-01-03 06:30:00,
2013-01-03 01:40:00,21.2,19.0,30.18,NW,319,0.0,0.0,91,0.00,,,0.00,0,Wunderground v.1.15,2013-01-03 06:40:00,
2013-01-03 01:50:00,21.1,18.9,30.18,NW,319,0.0,0.0,91,0.00,,,0.00,0,Wunderground v.1.15,2013-01-03 06:50:00,
2013-01-03 02:00:00,21.0,18.8,30.18,NW,319,0.0,0.0,91,0.00,,,0.00,0,Wunderground v.1.15,2013-01-03 07:00:00,
2013-01-03 02:10:00,21.0,18.8,30.18,NW,319,0.0,0.0,91,0.00,,,0.00,0,Wunderground v.1.15,2013-01-03 07:10:00,
2013-01-03 02:20:00,20.7,18.5,30.18,NW,319,0.0,0.0,91,0.00,,,0.00,0,Wunderground v.1.15,2013-01-03 07:20:00,
2013-01-03 02:25:00,20.6,18.4,30.18,NW,319,0.0,0.0,91,0.00,,,0.00,0,Wunderground v.1.15,2013-01-03 07:25:00,
2013-01-03 02:35:00,20.3,18.1,30.18,NW,319,0.0,0.0,91,0.00,,,0.00,0,Wunderground v.1.15,2013-01-03 07:35:00,
2013-01-03 02:45:00,20.1,17.9,30.18,NW,319,0.0,0.0,91,0.00,,,0.00,0,Wunderground v.1.15,2013-01-03 07:45:00,
2013-01-03 02:50:00,20.1,17.9,30.18,NW,319,0.0,0.0,91,0.00,,,0.00,0,Wunderground v.1.15,2013-01-03 07:50:00,
2013-01-03 03:00:00,19.9,17.7,30.18,NW,319,0.0,0.0,91,0.00,,,0.00,0,Wunderground v.1.15,2013-01-03 08:00:00,
2013-01-03 03:10:00,19.9,18.0,30.18,NW,319,0.0,0.0,92,0.00,,,0.00,0,Wunderground v.1.15,2013-01-03 08:10:00,
2013-01-03 03:20:00,20.2,18.2,30.19,NW,319,0.0,0.0,92,0.00,,,0.00,0,Wunderground v.1.15,2013-01-03 08:20:00,
2013-01-03 03:30:00,20.0,17.8,30.18,NW,319,0.0,0.0,91,0.00,,,0.00,0,Wunderground v.1.15,2013-01-03 08:30:00,
2013-01-03 03:40:00,19.8,17.6,30.18,NW,319,0.0,0.0,91,0.00,,,0.00,0,Wunderground v.1.15,2013-01-03 08:40:00,
2013-01-03 03:45:00,19.8,17.6,30.18,NW,319,0.0,0.0,91,0.00,,,0.00,0,Wunderground v.1.15,2013-01-03 08:45:00,
2013-01-03 03:50:00,19.8,17.6,30.18,NW,319,0.0,0.0,91,0.00,,,0.00,0,Wunderground v.1.15,2013-01-03 08:50:00,
2013-01-03 04:00:00,19.8,17.6,30.18,NW,319,0.0,0.0,91,0.00,,,0.00,0,Wunderground v.1.15,2013-01-03 09:00:00,
2013-01-03 04:10:00,19.9,17.7,30.19,NW,319,0.0,0.0,91,0.00,,,0.00,0,Wunderground v.1.15,2013-01-03 09:10:00,
2013-01-03 04:15:00,19.8,17.6,30.18,NW,319,0.0,0.0,91,0.00,,,0.00,0,Wunderground v.1.15,2013-01-03 09:15:00,
2013-01-03 04:25:00,19.9,17.7,30.18,NW,319,0.0,0.0,91,0.00,,,0.00,0,Wunderground v.1.15,2013-01-03 09:25:00,
2013-01-03 04:30:00,19.8,17.6,30.19,NW,319,0.0,0.0,91,0.00,,,0.00,0,Wunderground v.1.15,2013-01-03 09:30:00,
2013-01-03 04:35:00,19.8,17.6,30.18,NW,319,0.0,0.0,91,0.00,,,0.00,0,Wunderground v.1.15,2013-01-03 09:35:00,
2013-01-03 04:40:00,19.8,17.6,30.19,NW,319,0.0,0.0,91,0.00,,,0.00,0,Wunderground v.1.15,2013-01-03 09:40:00,
2013-01-03 04:50:00,19.9,17.7,30.19,NW,319,0.0,0.0,91,0.00,,,0.00,0,Wunderground v.1.15,2013-01-03 09:50:00,
2013-01-03 05:00:00,19.6,17.4,30.18,NW,319,0.0,0.0,91,0.00,,,0.00,0,Wunderground v.1.15,2013-01-03 10:00:00,
2013-01-03 05:10:00,19.5,17.3,30.19,NW,319,0.0,0.0,91,0.00,,,0.00,0,Wunderground v.1.15,2013-01-03 10:10:00,
2013-01-03 05:20:00,19.4,17.2,30.19,NW,319,0.0,0.0,91,0.00,,,0.00,0,Wunderground v.1.15,2013-01-03 10:20:00,
2013-01-03 05:30:00,19.2,17.0,30.19,NW,319,0.0,0.0,91,0.00,,,0.00,0,Wunderground v.1.15,2013-01-03 10:30:00,
2013-01-03 05:40:00,19.0,16.8,30.19,NW,319,0.0,0.0,91,0.00,,,0.00,0,Wunderground v.1.15,2013-01-03 10:40:00,
2013-01-03 05:50:00,19.0,17.1,30.20,NW,319,0.0,0.0,92,0.00,,,0.00,0,Wunderground v.1.15,2013-01-03 10:50:00,
2013-01-03 06:00:00,19.0,17.1,30.20,NW,319,0.0,0.0,92,0.00,,,0.00,0,Wunderground v.1.15,2013-01-03 11:00:00,
2013-01-03 06:05:00,19.0,17.1,30.20,NW,319,0.0,0.0,92,0.00,,,0.00,0,Wunderground v.1.15,2013-01-03 11:05:00,
2013-01-03 06:15:00,18.8,16.6,30.21,NW,319,0.0,0.0,91,0.00,,,0.00,0,Wunderground v.1.15,2013-01-03 11:15:00,
2013-01-03 06:25:00,18.6,16.4,30.21,NW,319,0.0,0.0,91,0.00,,,0.00,0,Wunderground v.1.15,2013-01-03 11:25:00,
2013-01-03 06:30:00,18.5,16.3,30.21,NW,319,0.0,0.0,91,0.00,,,0.00,0,Wunderground v.1.15,2013-01-03 11:30:00,
2013-01-03 06:40:00,18.4,16.2,30.21,NW,319,0.0,0.0,91,0.00,,,0.00,0,Wunderground v.1.15,2013-01-03 11:40:00,
2013-01-03 06:50:00,18.4,16.5,30.22,NW,319,0.0,0.0,92,0.00,,,0.00,0,Wunderground v.1.15,2013-01-03 11:50:00,
2013-01-03 07:00:00,18.3,16.1,30.21,NW,319,0.0,0.0,91,0.00,,,0.00,0,Wunderground v.1.15,2013-01-03 12:00:00,
2013-01-03 07:10:00,18.2,16.0,30.22,NW,319,0.0,0.0,91,0.00,,,0.00,0,Wunderground v.1.15,2013-01-03 12:10:00,
2013-01-03 07:15:00,18.2,16.3,30.21,NW,319,0.0,0.0,92,0.00,,,0.00,0,Wunderground v.1.15,2013-01-03 12:15:00,
2013-01-03 07:20:00,18.3,16.4,30.22,NW,319,0.0,0.0,92,0.00,,,0.00,0,Wunderground v.1.15,2013-01-03 12:20:00,
2013-01-03 07:30:00,18.2,16.0,30.22,NW,319,0.0,0.0,91,0.00,,,0.00,0,Wunderground v.1.15,2013-01-03 12:30:00,
2013-01-03 07:40:00,18.1,15.9,30.22,NW,319,0.0,0.0,91,0.00,,,0.00,0,Wunderground v.1.15,2013-01-03 12:40:00,
2013-01-03 07:45:00,18.1,15.9,30.22,NW,319,0.0,0.0,91,0.00,,,0.00,0,Wunderground v.1.15,2013-01-03 12:45:00,
2013-01-03 07:55:00,18.2,16.0,30.22,NW,319,0.0,0.0,91,0.00,,,0.00,0,Wunderground v.1.15,2013-01-03 12:55:00,
2013-01-03 08:00:00,18.2,16.0,30.23,NW,319,0.0,0.0,91,0.00,,,0.00,0,Wunderground v.1.15,2013-01-03 13:00:00,
2013-01-03 08:10:00,18.2,16.0,30.22,NW,319,0.0,0.0,91,0.00,,,0.00,0,Wunderground v.1.15,2013-01-03 13:10:00,
2013-01-03 08:15:00,18.1,15.9,30.23,NW,319,0.0,0.0,91,0.00,,,0.00,5,Wunderground v.1.15,2013-01-03 13:15:00,
2013-01-03 08:25:00,18.1,15.7,30.23,NW,319,0.0,0.0,90,0.00,,,0.00,12,Wunderground v.1.15,2013-01-03 13:25:00,
2013-01-03 08:35:00,18.8,16.6,30.24,NW,319,0.0,0.0,91,0.00,,,0.00,21,Wunderground v.1.15,2013-01-03 13:35:00,
2013-01-03 08:45:00,19.9,17.2,30.24,NW,319,0.0,0.0,89,0.00,,,0.00,37,Wunderground v.1.15,2013-01-03 13:45:00,
2013-01-03 08:55:00,21.5,17.7,30.23,West,277,0.0,2.0,85,0.00,,,0.00,56,Wunderground v.1.15,2013-01-03 13:55:00,
2013-01-03 09:25:00,25.8,18.0,30.24,West,273,2.0,3.0,72,0.00,,,0.00,134,Wunderground v.1.15,2013-01-03 14:25:00,
2013-01-03 09:30:00,26.1,17.6,30.24,WSW,249,3.0,3.0,70,0.00,,,0.00,148,Wunderground v.1.15,2013-01-03 14:30:00,
2013-01-03 09:40:00,26.4,18.3,30.24,WSW,256,4.0,4.0,71,0.00,,,0.00,174,Wunderground v.1.15,2013-01-03 14:40:00,
2013-01-03 09:45:00,26.5,18.0,30.24,West,262,4.0,4.0,70,0.00,,,0.00,186,Wunderground v.1.15,2013-01-03 14:45:00,
2013-01-03 09:55:00,27.0,18.2,30.24,West,272,3.0,3.0,69,0.00,,,0.00,211,Wunderground v.1.15,2013-01-03 14:55:00,
2013-01-03 10:00:00,27.4,18.6,30.24,SW,231,3.0,4.0,69,0.00,,,0.00,225,Wunderground v.1.15,2013-01-03 15:00:00,
2013-01-03 10:10:00,27.9,18.4,30.24,West,264,4.0,4.0,67,0.00,,,0.00,251,Wunderground v.1.15,2013-01-03 15:10:00,
2013-01-03 10:20:00,28.5,18.6,30.24,SW,230,3.0,7.0,66,0.00,,,0.00,281,Wunderground v.1.15,2013-01-03 15:20:00,
2013-01-03 10:30:00,29.3,18.6,30.24,WNW,292,4.0,4.0,64,0.00,,,0.00,309,Wunderground v.1.15,2013-01-03 15:30:00,
2013-01-03 10:40:00,29.7,18.3,30.25,West,276,5.0,7.0,62,0.00,,,0.00,325,Wunderground v.1.15,2013-01-03 15:40:00,
2013-01-03 10:45:00,29.8,18.4,30.25,West,281,6.0,8.0,62,0.00,,,0.00,336,Wunderground v.1.15,2013-01-03 15:45:00,
2013-01-03 10:55:00,30.2,18.7,30.25,West,268,7.0,7.0,62,0.00,,,0.00,352,Wunderground v.1.15,2013-01-03 15:55:00,
2013-01-03 11:00:00,30.5,19.0,30.25,WNW,283,6.0,6.0,62,0.00,,,0.00,362,Wunderground v.1.15,2013-01-03 16:00:00,
2013-01-03 11:10:00,30.9,19.4,30.25,WSW,257,5.0,5.0,62,0.00,,,0.00,387,Wunderground v.1.15,2013-01-03 16:10:00,
2013-01-03 11:20:00,31.1,19.2,30.25,West,264,6.0,9.0,61,0.00,,,0.00,396,Wunderground v.1.15,2013-01-03 16:20:00,
2013-01-03 11:30:00,31.2,19.7,30.25,WSW,257,7.0,7.0,62,0.00,,,0.00,410,Wunderground v.1.15,2013-01-03 16:30:00,
2013-01-03 11:40:00,31.8,20.6,30.25,West,265,6.0,8.0,63,0.00,,,0.00,422,Wunderground v.1.15,2013-01-03 16:40:00,
2013-01-03 11:45:00,32.0,20.4,30.25,West,270,5.0,8.0,62,0.00,,,0.00,429,Wunderground v.1.15,2013-01-03 16:45:00,
2013-01-03 11:50:00,32.3,21.1,30.25,West,273,5.0,5.0,63,0.00,,,0.00,434,Wunderground v.1.15,2013-01-03 16:50:00,
2013-01-03 12:00:00,32.4,20.4,30.24,SW,215,6.0,11.0,61,0.00,,,0.00,443,Wunderground v.1.15,2013-01-03 17:00:00,
2013-01-03 12:05:00,32.4,20.8,30.24,WNW,291,8.0,11.0,62,0.00,,,0.00,450,Wunderground v.1.15,2013-01-03 17:05:00,
2013-01-03 12:15:00,33.0,21.0,30.23,NW,311,7.0,7.0,61,0.00,,,0.00,457,Wunderground v.1.15,2013-01-03 17:15:00,
2013-01-03 12:25:00,33.6,20.8,30.23,WSW,254,6.0,9.0,59,0.00,,,0.00,462,Wunderground v.1.15,2013-01-03 17:25:00,
2013-01-03 12:30:00,33.9,21.5,30.23,NW,310,7.0,7.0,60,0.00,,,0.00,466,Wunderground v.1.15,2013-01-03 17:30:00,
2013-01-03 12:40:00,34.5,22.0,30.23,WNW,282,7.0,10.0,60,0.00,,,0.00,468,Wunderground v.1.15,2013-01-03 17:40:00,
2013-01-03 12:50:00,35.2,23.5,30.22,West,274,6.0,6.0,62,0.00,,,0.00,473,Wunderground v.1.15,2013-01-03 17:50:00,
2013-01-03 13:00:00,35.7,23.2,30.21,WSW,251,5.0,5.0,60,0.00,,,0.00,468,Wunderground v.1.15,2013-01-03 18:00:00,
2013-01-03 13:10:00,36.0,23.0,30.22,WNW,287,7.0,7.0,59,0.00,,,0.00,468,Wunderground v.1.15,2013-01-03 18:10:00,
2013-01-03 13:15:00,36.2,23.6,30.22,West,267,7.0,8.0,60,0.00,,,0.00,464,Wunderground v.1.15,2013-01-03 18:15:00,
2013-01-03 13:25:00,36.5,24.7,30.21,WNW,293,8.0,13.0,62,0.00,,,0.00,464,Wunderground v.1.15,2013-01-03 18:25:00,
2013-01-03 13:35:00,36.2,24.0,30.22,West,274,8.0,11.0,61,0.00,,,0.00,513,Wunderground v.1.15,2013-01-03 18:35:00,
2013-01-03 13:45:00,36.4,25.0,30.21,West,273,8.0,9.0,63,0.00,,,0.00,555,Wunderground v.1.15,2013-01-03 18:45:00,
2013-01-03 13:50:00,36.9,25.5,30.21,West,277,7.0,11.0,63,0.00,,,0.00,540,Wunderground v.1.15,2013-01-03 18:50:00,
2013-01-03 14:00:00,36.3,25.3,30.22,NW,315,8.0,8.0,64,0.00,,,0.00,271,Wunderground v.1.15,2013-01-03 19:00:00,
2013-01-03 14:10:00,36.4,25.7,30.22,WNW,284,7.0,12.0,65,0.00,,,0.00,153,Wunderground v.1.15,2013-01-03 19:10:00,
2013-01-03 14:15:00,36.5,25.8,30.22,West,273,8.0,12.0,65,0.00,,,0.00,427,Wunderground v.1.15,2013-01-03 19:15:00,
2013-01-03 15:00:00,36.8,26.1,30.23,WSW,258,7.0,8.0,65,0.00,,,0.00,359,Wunderground v.1.15,2013-01-03 20:00:00,
2013-01-03 15:10:00,37.0,25.9,30.24,NW,310,8.0,8.0,64,0.00,,,0.00,348,Wunderground v.1.15,2013-01-03 20:10:00,
2013-01-03 15:20:00,36.8,25.4,30.24,NW,320,8.0,8.0,63,0.00,,,0.01,332,Wunderground v.1.15,2013-01-03 20:20:00,
2013-01-03 15:30:00,36.9,25.9,30.24,WNW,303,6.0,7.0,64,0.00,,,0.01,309,Wunderground v.1.15,2013-01-03 20:30:00,
2013-01-03 15:40:00,36.9,25.5,30.25,West,267,6.0,6.0,63,0.00,,,0.01,287,Wunderground v.1.15,2013-01-03 20:40:00,
2013-01-03 15:50:00,37.2,25.0,30.25,WSW,254,5.0,5.0,61,0.00,,,0.01,257,Wunderground v.1.15,2013-01-03 20:50:00,
2013-01-03 16:00:00,37.5,24.9,30.25,WSW,245,3.0,3.0,60,0.00,,,0.01,232,Wunderground v.1.15,2013-01-03 21:00:00,
2013-01-03 16:10:00,37.5,24.9,30.25,WNW,286,3.0,5.0,60,0.00,,,0.01,204,Wunderground v.1.15,2013-01-03 21:10:00,
2013-01-03 16:20:00,37.5,24.5,30.25,WSW,244,4.0,5.0,59,0.00,,,0.01,176,Wunderground v.1.15,2013-01-03 21:20:00,
2013-01-03 16:25:00,37.5,24.1,30.25,WNW,283,4.0,5.0,58,0.00,,,0.01,162,Wunderground v.1.15,2013-01-03 21:25:00,
2013-01-03 16:35:00,37.4,24.4,30.25,West,274,4.0,6.0,59,0.00,,,0.01,130,Wunderground v.1.15,2013-01-03 21:35:00,
2013-01-03 16:45:00,37.2,23.8,30.25,West,269,4.0,7.0,58,0.00,,,0.01,84,Wunderground v.1.15,2013-01-03 21:45:00,
2013-01-03 16:50:00,36.9,23.5,30.25,WNW,303,4.0,4.0,58,0.00,,,0.01,53,Wunderground v.1.15,2013-01-03 21:50:00,
2013-01-03 17:00:00,36.4,23.0,30.25,WSW,245,4.0,7.0,58,0.00,,,0.01,33,Wunderground v.1.15,2013-01-03 22:00:00,
2013-01-03 17:10:00,36.1,22.7,30.25,West,276,5.0,5.0,58,0.00,,,0.01,23,Wunderground v.1.15,2013-01-03 22:10:00,
2013-01-03 17:20:00,35.7,23.6,30.26,West,265,2.0,3.0,61,0.00,,,0.01,14,Wunderground v.1.15,2013-01-03 22:20:00,
2013-01-03 17:25:00,35.4,23.3,30.26,West,272,2.0,3.0,61,0.00,,,0.01,11,Wunderground v.1.15,2013-01-03 22:25:00,
2013-01-03 17:35:00,34.8,23.9,30.25,West,273,2.0,2.0,64,0.00,,,0.01,5,Wunderground v.1.15,2013-01-03 22:35:00,
2013-01-03 17:40:00,34.7,23.8,30.26,NW,304,3.0,3.0,64,0.00,,,0.01,0,Wunderground v.1.15,2013-01-03 22:40:00,
2013-01-03 17:45:00,34.6,23.3,30.26,WNW,291,3.0,3.0,63,0.00,,,0.01,0,Wunderground v.1.15,2013-01-03 22:45:00,
2013-01-03 17:50:00,34.4,23.5,30.26,WNW,285,2.0,2.0,64,0.00,,,0.01,0,Wunderground v.1.15,2013-01-03 22:50:00,
2013-01-03 17:55:00,34.2,23.7,30.26,WNW,285,1.0,2.0,65,0.00,,,0.01,0,Wunderground v.1.15,2013-01-03 22:55:00,
2013-01-03 18:05:00,33.5,23.4,30.26,WNW,283,0.0,0.0,66,0.00,,,0.01,0,Wunderground v.1.15,2013-01-03 23:05:00,
2013-01-03 18:10:00,33.1,23.7,30.26,WNW,283,0.0,0.0,68,0.00,,,0.01,0,Wunderground v.1.15,2013-01-03 23:10:00,
2013-01-03 18:20:00,32.1,24.7,30.26,WNW,283,0.0,0.0,74,0.00,,,0.01,0,Wunderground v.1.15,2013-01-03 23:20:00,
2013-01-03 18:30:00,31.4,24.1,30.27,SW,235,0.0,0.0,74,0.00,,,0.01,0,Wunderground v.1.15,2013-01-03 23:30:00,
2013-01-03 18:40:00,30.8,24.4,30.27,SW,235,0.0,0.0,77,0.00,,,0.01,0,Wunderground v.1.15,2013-01-03 23:40:00,
2013-01-03 18:50:00,30.4,24.4,30.28,SW,234,0.0,0.0,78,0.00,,,0.01,0,Wunderground v.1.15,2013-01-03 23:50:00,
2013-01-03 18:55:00,30.1,24.4,30.28,SW,235,0.0,0.0,79,0.00,,,0.01,0,Wunderground v.1.15,2013-01-03 23:55:00,
2013-01-03 19:05:00,29.6,24.8,30.29,SW,234,0.0,0.0,82,0.00,,,0.01,0,Wunderground v.1.15,2013-01-04 00:05:00,
2013-01-03 19:15:00,29.2,24.7,30.29,SW,235,0.0,0.0,83,0.00,,,0.01,0,Wunderground v.1.15,2013-01-04 00:15:00,
2013-01-03 19:20:00,29.0,24.5,30.28,SW,235,0.0,0.0,83,0.00,,,0.01,0,Wunderground v.1.15,2013-01-04 00:20:00,
2013-01-03 19:30:00,28.5,24.3,30.28,SW,235,0.0,0.0,84,0.00,,,0.01,0,Wunderground v.1.15,2013-01-04 00:30:00,
2013-01-03 19:40:00,28.1,24.2,30.29,SW,235,0.0,0.0,85,0.00,,,0.01,0,Wunderground v.1.15,2013-01-04 00:40:00,
2013-01-03 19:50:00,27.6,23.7,30.29,SW,235,0.0,0.0,85,0.00,,,0.01,0,Wunderground v.1.15,2013-01-04 00:50:00,
2013-01-03 20:00:00,27.4,23.8,30.30,SW,235,0.0,0.0,86,0.00,,,0.01,0,Wunderground v.1.15,2013-01-04 01:00:00,
2013-01-03 20:10:00,27.0,23.4,30.29,SW,235,0.0,0.0,86,0.00,,,0.01,0,Wunderground v.1.15,2013-01-04 01:10:00,
2013-01-03 20:20:00,26.9,23.5,30.29,SW,235,0.0,0.0,87,0.00,,,0.01,0,Wunderground v.1.15,2013-01-04 01:20:00,
2013-01-03 20:30:00,26.6,23.3,30.30,SW,235,0.0,0.0,87,0.00,,,0.01,0,Wunderground v.1.15,2013-01-04 01:30:00,
2013-01-03 20:35:00,26.3,23.0,30.30,SW,235,0.0,0.0,87,0.00,,,0.01,0,Wunderground v.1.15,2013-01-04 01:35:00,
2013-01-03 20:45:00,26.1,23.0,30.30,SW,235,0.0,0.0,88,0.00,,,0.01,0,Wunderground v.1.15,2013-01-04 01:45:00,
2013-01-03 20:55:00,26.0,23.2,30.30,SW,235,0.0,0.0,89,0.00,,,0.01,0,Wunderground v.1.15,2013-01-04 01:55:00,
2013-01-03 21:05:00,26.1,23.0,30.31,WSW,257,0.0,0.0,88,0.00,,,0.01,0,Wunderground v.1.15,2013-01-04 02:05:00,
2013-01-03 21:15:00,26.3,23.2,30.30,WSW,257,0.0,0.0,88,0.00,,,0.01,0,Wunderground v.1.15,2013-01-04 02:15:00,
2013-01-03 21:25:00,26.5,23.4,30.30,WSW,257,0.0,0.0,88,0.00,,,0.01,0,Wunderground v.1.15,2013-01-04 02:25:00,
2013-01-03 21:35:00,26.7,23.6,30.31,WSW,257,0.0,0.0,88,0.00,,,0.01,0,Wunderground v.1.15,2013-01-04 02:35:00,
2013-01-03 21:40:00,26.9,23.8,30.31,WSW,258,0.0,0.0,88,0.00,,,0.01,0,Wunderground v.1.15,2013-01-04 02:40:00,
2013-01-03 21:50:00,27.9,24.5,30.31,West,272,0.0,0.0,87,0.00,,,0.01,0,Wunderground v.1.15,2013-01-04 02:50:00,
2013-01-03 22:00:00,28.4,24.7,30.31,West,272,0.0,0.0,86,0.00,,,0.01,0,Wunderground v.1.15,2013-01-04 03:00:00,
2013-01-03 22:09:00,28.6,24.7,30.31,West,272,0.0,0.0,85,0.00,,,0.01,0,Wunderground v.1.15,2013-01-04 03:09:00,
2013-01-03 22:15:00,28.7,24.8,30.31,West,272,0.0,0.0,85,0.00,,,0.01,0,Wunderground v.1.15,2013-01-04 03:15:00,
2013-01-03 22:25:00,28.9,25.0,30.31,West,272,0.0,0.0,85,0.00,,,0.01,0,Wunderground v.1.15,2013-01-04 03:25:00,
2013-01-03 22:35:00,29.1,25.2,30.32,West,272,0.0,1.0,85,0.00,,,0.01,0,Wunderground v.1.15,2013-01-04 03:35:00,
2013-01-03 22:45:00,29.8,25.6,30.32,West,274,2.0,4.0,84,0.00,,,0.01,0,Wunderground v.1.15,2013-01-04 03:45:00,
2013-01-03 22:49:00,30.3,25.8,30.33,West,276,2.0,3.0,83,0.00,,,0.01,0,Wunderground v.1.15,2013-01-04 03:49:00,
2013-01-03 23:00:00,30.7,25.9,30.33,West,272,3.0,4.0,82,0.00,,,0.01,0,Wunderground v.1.15,2013-01-04 04:00:00,
2013-01-03 23:09:00,30.8,26.0,30.33,WNW,291,4.0,4.0,82,0.00,,,0.01,0,Wunderground v.1.15,2013-01-04 04:09:00,
2013-01-03 23:15:00,30.8,26.0,30.33,NW,310,4.0,4.0,82,0.00,,,0.01,0,Wunderground v.1.15,2013-01-04 04:15:00,
2013-01-03 23:24:00,30.9,26.1,30.33,West,264,3.0,3.0,82,0.00,,,0.01,0,Wunderground v.1.15,2013-01-04 04:24:00,
2013-01-03 23:30:00,31.0,26.1,30.33,WSW,247,2.0,2.0,82,0.00,,,0.01,0,Wunderground v.1.15,2013-01-04 04:30:00,
2013-01-03 23:39:00,31.2,26.0,30.33,WNW,283,3.0,3.0,81,0.00,,,0.01,0,Wunderground v.1.15,2013-01-04 04:39:00,
2013-01-03 23:45:00,31.2,26.0,30.33,West,274,2.0,3.0,81,0.00,,,0.01,0,Wunderground v.1.15,2013-01-04 04:45:00,
2013-01-03 23:55:00,31.3,26.1,30.33,WNW,293,2.0,4.0,81,0.00,,,0.01,0,Wunderground v.1.15,2013-01-04 04:55:00,